User: anonymous   Login
Location: Schommer Observatory
(40.5200°N, 74.4500°W)
Time: 05:12:48
(UTC-04:00)
Language:

Envisat - Orbit

View from above orbital plane
View from above orbital plane
View from above satellite
View from above satellite

Ground track
Ground track

The orbit data is extracted from the following two-line orbital elements,

1 27386U 02009A   18196.71123568 -.00000020  00000-0  69364-5 0  9991
2 27386  98.1823 229.4250 0001365  95.9118  40.3324 14.37925736857622
Epoch (UTC): 15 July 2018 17:04:10
Eccentricity: 0.0001365
inclination: 98.1823°
perigee height: 764 km
apogee height: 766 km
right ascension of ascending node: 229.4250°
argument of perigee: 95.9118°
revolutions per day: 14.37925736
mean anomaly at epoch: 40.3324°
orbit number at epoch: 85762

The dashed part of the orbit path shows where the satellite is in the earth's shadow,  

DLR